sat.trackr.live / text

‹ back to catalog

CARTOSAT-3

NORAD 44804 · 2019-081A

PAYLOAD ACTIVE UNKNOWN

§ Identity

Operator
Country
IND
Launch date
2019-11-27
Launch site
SRILR
Launch vehicle
Mass (kg)
RCS (m²)

Purposes: earth_obs

External: N2YO · Heavens-Above · Gunter

§ Orbital elements

Epoch: 2026-09-20T04:45:55.389600Z

Period
94.78 min
Inclination
97.4206°
Eccentricity
0.0011581
Mean motion
15.19233950 rev/d
Perigee alt
500.2 km
Apogee alt
516.1 km
Semi-major
6,886.3 km
B*
4.8918e-5
RAAN
323.4820°
Arg perigee
175.6103°
Mean anomaly
184.5236°
Rev number
37,789

§ Raw data

CARTOSAT-31 44804U 19081A   26263.19855775  .00000964  00000+0  48918-4 0  99972 44804  97.4206 323.4820 0011581 175.6103 184.5236 15.19233950377892

JSON: /api/v1/satellites/44804 · /tle

For live sub-satellite position, see the globe view (requires WebGL).

§ Visibility from observer

Set your observer location to see the next 7 days of passes ≥ 10°. The values pass through the URL so the page stays shareable.

No JS? Fill the form by hand. The geolocation button needs JavaScript.

§ Radio — SatNOGS DB

ModeDescriptionDownlinkUplink
CW Beacon 2.225 GHz
BPSK Beacon sideband 2.225 GHz

2 transmitters · refreshed weekly from db.satnogs.org